Home > Weather > St. Petersburg > Past weeks

Flag for USA Past Weather in St. Petersburg, Florida, USA — Yesterday and Last 2 Weeks

Now
78 °F

Passing clouds.


Feels Like: 81 °F
Forecast: 80 / 92 °F
Wind: 3 mph from Northeast

Location: Whitted Airport

Current Time: Jul 26, 2016 at 4:40:54 AM

Latest Report: Jul 26, 2016 at 3:53 AM


Visibility: 10 mi

Pressure: 30.04 "Hg

Humidity: 82%

Dew Point: 72 °F

Location of St. PetersburgLocation

Past Weather in St. Petersburg — Graph

°F

St. Petersburg Temperature Yesterday

Maximum temperature yesterday: 88 °F (at 1:53 PM)
Minimum temperature yesterday: 79 °F (at 12:53 AM)
Average temperature yesterday: 83 °F

High & Low Weather Summary for the Past Weeks

 TemperatureHumidityPressure
High93 °F (Jul 12, 2:53 PM)90% (Jul 17, 8:53 PM)30.20 "Hg (Jul 17, 8:53 PM)
Low75 °F (Jul 19, 3:53 PM)47% (Jul 14, 3:53 PM)29.97 "Hg (Jul 23, 6:53 PM)
Average84 °F72%30.07 "Hg
* Reported Jul 11 3:53 AM — Jul 26 3:00 AM, St. Petersburg, Weather by CustomWeather, © 2016

Note: Actual official high and low records may vary slightly from our data, if they occured in-between our weather recording intervals... More about our weather records

Advertising

St. Petersburg Weather History for the Previous 24 Hours

Scroll right to see more
 ConditionsComfort  
Time TempWeatherWind HumidityBarometerVisibility
3:00 AM
Tue, Jul 26
77 °FLight rain. Mostly cloudy.3 mph85%30.05 "Hg3 mi
1:53 AM82 °FPassing clouds.No wind79%30.05 "Hg10 mi
12:53 AM82 °FPassing clouds.3 mph79%30.06 "Hg10 mi
11:53 PM
Mon, Jul 25
82 °FPassing clouds.8 mph77%30.05 "Hg10 mi
10:53 PM83 °FClear.5 mph70%30.05 "Hg10 mi
9:53 PM84 °FClear.6 mph67%30.03 "Hg10 mi
8:53 PM85 °FSunny.7 mph65%30.02 "Hg10 mi
7:53 PM85 °FSunny.6 mph63%30.01 "Hg10 mi
6:53 PM86 °FPartly sunny.9 mph63%30.01 "Hg10 mi
5:53 PM86 °FSunny.9 mph70%29.99 "Hg10 mi
4:53 PM86 °FPartly sunny.8 mph67%29.99 "Hg10 mi
3:53 PM88 °FScattered clouds.12 mph54%30.01 "Hg10 mi
2:53 PM88 °FScattered clouds.14 mph59%30.01 "Hg10 mi
1:53 PM88 °FSunny.9 mph55%30.04 "Hg10 mi
12:53 PM86 °FSunny.7 mph61%30.05 "Hg10 mi
11:53 AM86 °FSunny.10 mph63%30.05 "Hg10 mi
10:53 AM84 °FSunny.10 mph70%30.06 "Hg10 mi
9:53 AM82 °FSunny.12 mph79%30.06 "Hg10 mi
8:53 AM81 °FSunny.12 mph79%30.06 "Hg10 mi
7:53 AM79 °FSunny.13 mph88%30.02 "Hg10 mi
6:53 AM79 °FPassing clouds.13 mph84%30.02 "Hg10 mi
5:53 AM79 °FClear.12 mph84%30.00 "Hg10 mi
4:53 AM79 °FClear.13 mph84%30.00 "Hg10 mi
Weather by CustomWeather, © 2016

See weather overviewHow to use our weather pages